Appleton, MN

6:13 PM CDT on April 25, 2017 (GMT -0500)
Appleton Municipal

Weather History for KAQP - July, 2013

Change the Weather History Date:

Monday, July 15, 2013

  Actual Average Record
Temperature  
Mean Temperature 77 °F -  
Max Temperature 86 °F 80 °F 96 °F (2006)
Min Temperature 68 °F 60 °F 50 °F (2016)
Cooling Degree Days 12    
Growing Degree Days 27 (Base 50)    
Moisture  
Dew Point 66 °F    
Average Humidity 71    
Maximum Humidity 94    
Minimum Humidity 45    
Precipitation  
Precipitation 0.00 in - - ()
Sea Level Pressure  
Sea Level Pressure 30.16 in    
Wind  
Wind Speed 3 mph (SSE)    
Max Wind Speed 12 mph    
Max Gust Speed 16 mph    
Visibility 7 miles    
Events Fog    
Averages and records for this station are not official NWS values.
T = Trace of Precipitation, MM = Missing Value Source: NWS Daily Summary

Daily Weather History Graph

Daily Weather History Graph

Search for Another Location

Airport or City:

Trip Planner

Search our weather history database for the weather conditions in past years. The results will help you decide how hot, cold, wet, or windy it might be!

Date:

Astronomy

Jul. 15, 2013 Rise Set
Actual Time 5:51 AM CDT 9:08 PM CDT
Civil Twilight 5:14 AM CDT 9:44 PM CDT
Nautical Twilight 4:27 AM CDT 10:31 PM CDT
Astronomical Twilight 3:29 AM CDT 11:29 PM CDT
Moon 1:35 PM CDT (7/15) 12:00 AM CDT (7/15)
Length of Visible Light 16h 29m
Length of Day
15h 17m
Waxing Crescent, 45% of the Moon is Illuminated
Jul 15
Waxing Crescent
Jul 15
First Quarter
Jul 22
Full
Jul 29
Last Quarter
Aug 6
New

Hourly Weather History & Observations

Time (CDT) Temp. Heat Index Dew Point Humidity Pressure Visibility Wind Dir Wind Speed Gust Speed Precip Events Conditions
12:13 AM 69.8 °F - 66.2 °F 88% 30.18 in 7.0 mi Calm Calm - N/A   Overcast
12:34 AM 69.8 °F - 66.2 °F 88% 30.18 in 7.0 mi Calm Calm - N/A   Overcast
12:53 AM 69.8 °F - 68.0 °F 94% 30.17 in 7.0 mi Calm Calm - N/A   Overcast
1:14 AM 71.6 °F - 68.0 °F 88% 30.17 in 5.0 mi Calm Calm - N/A   Overcast
1:34 AM 71.6 °F - 68.0 °F 88% 30.17 in 4.0 mi Calm Calm - N/A   Overcast
1:53 AM 69.8 °F - 66.2 °F 88% 30.17 in 3.0 mi East 3.5 mph - N/A   Mostly Cloudy
2:13 AM 69.8 °F - 66.2 °F 88% 30.17 in 4.0 mi Calm Calm - N/A   Mostly Cloudy
2:33 AM 69.8 °F - 66.2 °F 88% 30.17 in 4.0 mi Calm Calm - N/A   Scattered Clouds
2:53 AM 69.8 °F - 66.2 °F 88% 30.16 in 3.0 mi Calm Calm - N/A   Clear
3:13 AM 69.8 °F - 66.2 °F 88% 30.16 in 2.0 mi Calm Calm - N/A   Mostly Cloudy
3:34 AM 69.8 °F - 66.2 °F 88% 30.16 in 4.0 mi Calm Calm - N/A   Clear
3:53 AM 69.8 °F - 66.2 °F 88% 30.17 in 3.0 mi Calm Calm - N/A   Clear
4:13 AM 69.8 °F - 66.2 °F 88% 30.16 in 2.0 mi Calm Calm - N/A   Clear
4:33 AM 69.8 °F - 66.2 °F 88% 30.16 in 1.8 mi Calm Calm - N/A   Clear
4:53 AM 69.8 °F - 66.2 °F 88% 30.17 in 2.0 mi Calm Calm - N/A   Clear
5:14 AM 69.8 °F - 66.2 °F 88% 30.17 in 1.8 mi Calm Calm - N/A   Mostly Cloudy
5:33 AM 69.8 °F - 66.2 °F 88% 30.17 in 2.5 mi Calm Calm - N/A   Clear
5:53 AM 69.8 °F - 66.2 °F 88% 30.18 in 1.2 mi Calm Calm - N/A   Clear
6:14 AM 68.0 °F - 66.2 °F 94% 30.18 in 0.2 mi Calm Calm - N/A Fog Fog
6:33 AM 68.0 °F - 66.2 °F 94% 30.18 in 0.5 mi Calm Calm - N/A Fog Fog
6:53 AM 69.8 °F - 66.2 °F 88% 30.18 in 0.8 mi Calm Calm - N/A   Overcast
7:13 AM 69.8 °F - 68.0 °F 94% 30.18 in 1.2 mi Calm Calm - N/A   Overcast
7:33 AM 71.6 °F - 69.8 °F 94% 30.18 in 3.0 mi SSE 3.5 mph - N/A   Mostly Cloudy
7:53 AM 71.6 °F - 68.0 °F 88% 30.18 in 5.0 mi SSE 3.5 mph - N/A   Scattered Clouds
8:13 AM 71.6 °F - 69.8 °F 94% 30.19 in 7.0 mi SSE 4.6 mph - N/A   Scattered Clouds
8:34 AM 71.6 °F - 68.0 °F 88% 30.19 in 7.0 mi SSE 5.8 mph - N/A   Scattered Clouds
8:53 AM 73.4 °F - 69.8 °F 88% 30.19 in 7.0 mi SSE 6.9 mph - N/A   Clear
9:13 AM 73.4 °F - 69.8 °F 88% 30.19 in 7.0 mi SSE 3.5 mph - N/A   Clear
9:33 AM 75.2 °F - 69.8 °F 83% 30.19 in 10.0 mi South 4.6 mph - N/A   Clear
9:53 AM 78.8 °F - 69.8 °F 74% 30.19 in 10.0 mi South 5.8 mph - N/A   Clear
10:14 AM 80.6 °F 83.2 °F 68.0 °F 65% 30.19 in 10.0 mi South 8.1 mph - N/A   Clear
10:33 AM 80.6 °F 83.2 °F 68.0 °F 65% 30.19 in 10.0 mi South 6.9 mph - N/A   Clear
10:53 AM 82.4 °F 84.6 °F 66.2 °F 58% 30.19 in 10.0 mi South 10.4 mph - N/A   Clear
11:13 AM 82.4 °F 84.6 °F 66.2 °F 58% 30.19 in 10.0 mi South 8.1 mph - N/A   Clear
11:33 AM 82.4 °F 84.6 °F 66.2 °F 58% 30.19 in 10.0 mi SSW 9.2 mph - N/A   Clear
11:53 AM 84.2 °F 86.6 °F 66.2 °F 55% 30.19 in 10.0 mi South 8.1 mph - N/A   Clear
12:13 PM 84.2 °F 85.6 °F 64.4 °F 51% 30.19 in 10.0 mi South 10.4 mph - N/A   Clear
12:33 PM 84.2 °F 85.6 °F 64.4 °F 51% 30.19 in 10.0 mi South 9.2 mph - N/A   Clear
12:53 PM 84.2 °F 85.6 °F 64.4 °F 51% 30.18 in 10.0 mi SSW 8.1 mph - N/A   Scattered Clouds
1:14 PM 84.2 °F 85.6 °F 64.4 °F 51% 30.18 in 10.0 mi SSW 9.2 mph 16.1 mph N/A   Scattered Clouds
1:34 PM 86.0 °F 87.3 °F 64.4 °F 48% 30.17 in 10.0 mi SSW 9.2 mph - N/A   Clear
1:53 PM 84.2 °F 85.0 °F 62.6 °F 48% 30.17 in 10.0 mi SSW 10.4 mph - N/A   Scattered Clouds
2:13 PM 86.0 °F 86.6 °F 62.6 °F 45% 30.17 in 10.0 mi South 9.2 mph - N/A   Scattered Clouds
2:33 PM 86.0 °F 87.3 °F 64.4 °F 48% 30.17 in 10.0 mi SSE 11.5 mph - N/A   Clear
2:53 PM 86.0 °F 86.6 °F 62.6 °F 45% 30.17 in 10.0 mi South 10.4 mph 16.1 mph N/A   Clear
3:13 PM 84.2 °F 85.0 °F 62.6 °F 48% 30.16 in 10.0 mi South 11.5 mph - N/A   Clear
3:34 PM 84.2 °F 85.0 °F 62.6 °F 48% 30.16 in 10.0 mi South 8.1 mph 16.1 mph N/A   Scattered Clouds
3:54 PM 84.2 °F 85.6 °F 64.4 °F 51% 30.16 in 10.0 mi SSW 8.1 mph - N/A   Scattered Clouds
4:13 PM 84.2 °F 85.6 °F 64.4 °F 51% 30.15 in 10.0 mi South 8.1 mph - N/A   Clear
4:33 PM 86.0 °F 87.3 °F 64.4 °F 48% 30.15 in 10.0 mi South 10.4 mph - N/A   Scattered Clouds
4:53 PM 86.0 °F 87.3 °F 64.4 °F 48% 30.15 in 10.0 mi South 9.2 mph - N/A   Clear
5:13 PM 84.2 °F 85.6 °F 64.4 °F 51% 30.14 in 10.0 mi South 11.5 mph - N/A   Scattered Clouds
5:33 PM 86.0 °F 87.3 °F 64.4 °F 48% 30.14 in 10.0 mi South 9.2 mph - N/A   Scattered Clouds
5:53 PM 86.0 °F 87.3 °F 64.4 °F 48% 30.14 in 10.0 mi South 9.2 mph - N/A   Clear
6:13 PM 84.2 °F 85.0 °F 62.6 °F 48% 30.13 in 3.0 mi South 6.9 mph - N/A   Haze
6:33 PM 84.2 °F 85.6 °F 64.4 °F 51% 30.13 in 10.0 mi South 8.1 mph - N/A   Clear
6:53 PM 82.4 °F 84.6 °F 66.2 °F 58% 30.13 in 10.0 mi SSE 3.5 mph - N/A   Clear
7:13 PM 84.2 °F 87.3 °F 68.0 °F 58% 30.13 in 10.0 mi SSE 5.8 mph - N/A   Clear
7:34 PM 82.4 °F 84.6 °F 66.2 °F 58% 30.12 in 10.0 mi SSE 4.6 mph - N/A   Clear
7:53 PM 82.4 °F 85.4 °F 68.0 °F 62% 30.12 in 10.0 mi SSE 3.5 mph - N/A   Clear
8:14 PM 80.6 °F 83.2 °F 68.0 °F 65% 30.12 in 10.0 mi SE 4.6 mph - N/A   Clear
8:33 PM 80.6 °F 83.2 °F 68.0 °F 65% 30.11 in 10.0 mi SE 3.5 mph - N/A   Clear
8:53 PM 78.8 °F - 69.8 °F 74% 30.11 in 10.0 mi SE 4.6 mph - N/A   Clear
9:13 PM 78.8 °F - 68.0 °F 69% 30.12 in 10.0 mi SSE 3.5 mph - N/A   Clear
9:33 PM 77.0 °F - 68.0 °F 74% 30.12 in 10.0 mi SE 4.6 mph - N/A   Clear
9:53 PM 75.2 °F - 68.0 °F 78% 30.12 in 10.0 mi SE 4.6 mph - N/A   Clear
10:14 PM 75.2 °F - 68.0 °F 78% 30.13 in 10.0 mi SE 5.8 mph - N/A   Clear
10:34 PM 75.2 °F - 68.0 °F 78% 30.12 in 10.0 mi SSE 5.8 mph - N/A   Clear
10:53 PM 75.2 °F - 68.0 °F 78% 30.13 in 10.0 mi SSE 5.8 mph - N/A   Clear
11:13 PM 75.2 °F - 68.0 °F 78% 30.13 in 10.0 mi SE 5.8 mph - N/A   Clear
11:33 PM 75.2 °F - 66.2 °F 73% 30.13 in 10.0 mi SE 5.8 mph - N/A   Clear
11:54 PM 75.2 °F - 66.2 °F 73% 30.13 in 10.0 mi SSE 4.6 mph - N/A   Clear